Total_Precipitation_Accumulation
0.00 0.00 0.00 0.00 0.00 0.00 0.00 0.00 0.00 0.00 0.00 0.00 0.00 0.00 0.00 0.00 0.00 0.00 0.00 0.00 0.00 0.02 0.03 0.04 0.04 0.06 0.08 0.11 0.13 0.15 0.17 0.19 0.23 0.28 0.33 0.41 0.56 0.74
0.00 0.00 0.00 0.00 0.00 0.00 0.00 0.00 0.00 0.00 0.00 0.00 0.00 0.00 0.00 0.00 0.00 0.00 0.00 0.00 0.00 0.01 0.02 0.04 0.06 0.07 0.09 0.11 0.12 0.15 0.17 0.19 0.22 0.27 0.33 0.38 0.45 0.54
0.00 0.00 0.00 0.00 0.00 0.00 0.00 0.00 0.00 0.00 0.00 0.00 0.00 0.00 0.00 0.00 0.00 0.00 0.00 0.00 0.01 0.02 0.03 0.04 0.05 0.07 0.09 0.11 0.13 0.15 0.17 0.21 0.25 0.30 0.36 0.41 0.46 0.49
0.00 0.00 0.00 0.00 0.00 0.00 0.00 0.00 0.00 0.00 0.01 0.02 0.00 0.00 0.00 0.00 0.00 0.00 0.00 0.01 0.01 0.01 0.02 0.03 0.05 0.06 0.08 0.10 0.13 0.18 0.22 0.25 0.28 0.30 0.31 0.32 0.36 0.42
0.00 0.00 0.00 0.00 0.00 0.00 0.00 0.00 0.00 0.00 0.02 0.03 0.02 0.00 0.00 0.01 0.01 0.01 0.00 0.00 0.00 0.00 0.00 0.01 0.02 0.06 0.10 0.14 0.17 0.20 0.20 0.19 0.18 0.17 0.18 0.19 0.21 0.24
0.00 0.00 0.00 0.00 0.00 0.00 0.00 0.01 0.02 0.02 0.02 0.04 0.06 0.06 0.05 0.03 0.03 0.02 0.01 0.00 0.00 0.00 0.01 0.02 0.04 0.08 0.10 0.10 0.09 0.07 0.06 0.08 0.10 0.13 0.16 0.17 0.16 0.16
0.00 0.00 0.00 0.00 0.00 0.00 0.02 0.03 0.04 0.05 0.11 0.17 0.18 0.14 0.08 0.04 0.02 0.01 0.01 0.02 0.01 0.01 0.02 0.03 0.03 0.02 0.01 0.01 0.01 0.02 0.05 0.10 0.15 0.19 0.21 0.21 0.21 0.20
0.00 0.00 0.00 0.00 0.00 0.01 0.02 0.05 0.09 0.16 0.25 0.30 0.24 0.14 0.04 0.01 0.01 0.04 0.08 0.12 0.07 0.01 0.04 0.02 0.01 0.01 0.00 0.01 0.02 0.06 0.09 0.13 0.16 0.17 0.18 0.19 0.18 0.18
0.00 0.00 0.00 0.00 0.00 0.00 0.01 0.05 0.11 0.17 0.20 0.18 0.11 0.03 0.02 0.03 0.10 0.16 0.14 0.13 0.08 0.02 0.05 0.04 0.02 0.02 0.01 0.02 0.03 0.05 0.07 0.10 0.13 0.16 0.17 0.17 0.16 0.15
0.00 0.00 0.00 0.00 0.01 0.03 0.07 0.14 0.10 0.07 0.04 0.03 0.02 0.03 0.05 0.06 0.11 0.17 0.14 0.11 0.05 0.02 0.04 0.06 0.02 0.02 0.01 0.01 0.02 0.03 0.06 0.12 0.17 0.19 0.19 0.18 0.17 0.17
0.00 0.00 0.01 0.01 0.03 0.11 0.17 0.17 0.08 0.02 0.00 0.02 0.05 0.05 0.04 0.04 0.04 0.14 0.20 0.21 0.12 0.02 0.02 0.04 0.03 0.02 0.02 0.01 0.01 0.03 0.05 0.08 0.09 0.09 0.10 0.12 0.13 0.15
0.00 0.00 0.01 0.03 0.08 0.15 0.14 0.11 0.04 0.01 0.04 0.03 0.01 0.00 0.00 0.00 0.02 0.09 0.27 0.44 0.29 0.13 0.01 0.07 0.10 0.13 0.18 0.03 0.01 0.01 0.02 0.03 0.06 0.08 0.09 0.10 0.11 0.13
0.02 0.01 0.01 0.05 0.12 0.13 0.08 0.02 0.03 0.07 0.05 0.01 0.00 0.00 0.00 0.01 0.01 0.02 0.13 0.45 0.58 0.33 0.06 0.27 0.36 0.18 0.24 0.10 0.01 0.00 0.02 0.09 0.16 0.18 0.21 0.23 0.26 0.32
0.03 0.02 0.03 0.09 0.08 0.04 0.01 0.02 0.05 0.05 0.01 0.00 0.01 0.01 0.01 0.02 0.02 0.02 0.03 0.10 0.28 0.39 0.22 0.40 0.60 0.36 0.35 0.20 0.04 0.01 0.02 0.13 0.32 0.37 0.38 0.44 0.50 0.51
0.03 0.06 0.07 0.05 0.02 0.00 0.00 0.01 0.02 0.00 0.01 0.04 0.04 0.03 0.02 0.02 0.03 0.04 0.03 0.02 0.03 0.06 0.11 0.22 0.44 0.41 0.38 0.30 0.15 0.05 0.09 0.13 0.27 0.40 0.49 0.59 0.70 0.71
0.05 0.06 0.03 0.00 0.00 0.00 0.00 0.00 0.00 0.00 0.04 0.08 0.07 0.04 0.02 0.03 0.04 0.07 0.11 0.10 0.11 0.05 0.03 0.09 0.20 0.34 0.32 0.18 0.21 0.19 0.22 0.30 0.32 0.43 0.57 0.65 0.77 0.90
0.06 0.01 0.00 0.00 0.00 0.00 0.00 0.00 0.00 0.01 0.03 0.05 0.08 0.09 0.06 0.05 0.05 0.07 0.15 0.18 0.21 0.14 0.08 0.05 0.05 0.09 0.16 0.22 0.23 0.20 0.26 0.36 0.50 0.59 0.69 0.66 0.69 0.89
0.02 0.00 0.00 0.01 0.01 0.01 0.01 0.01 0.01 0.02 0.05 0.10 0.11 0.12 0.13 0.12 0.09 0.07 0.13 0.20 0.21 0.16 0.15 0.12 0.10 0.08 0.09 0.12 0.23 0.36 0.38 0.47 0.52 0.54 0.63 0.67 0.67 0.70
0.00 0.01 0.01 0.01 0.01 0.01 0.02 0.04 0.04 0.04 0.07 0.12 0.15 0.17 0.17 0.14 0.12 0.12 0.13 0.14 0.13 0.12 0.14 0.16 0.18 0.24 0.21 0.15 0.13 0.35 0.59 0.59 0.49 0.50 0.62 0.76 0.90 0.80
0.01 0.02 0.02 0.02 0.02 0.03 0.05 0.08 0.08 0.06 0.07 0.10 0.13 0.15 0.16 0.17 0.14 0.14 0.14 0.16 0.16 0.13 0.11 0.09 0.13 0.27 0.41 0.38 0.32 0.39 0.47 0.60 0.63 0.70 0.73 0.67 0.75 0.71
0.01 0.01 0.01 0.02 0.04 0.06 0.08 0.10 0.11 0.11 0.11 0.14 0.13 0.14 0.16 0.19 0.15 0.12 0.12 0.11 0.13 0.13 0.13 0.10 0.09 0.15 0.22 0.19 0.19 0.29 0.39 0.46 0.61 0.81 0.74 0.53 0.50 0.52
0.02 0.02 0.01 0.02 0.06 0.10 0.11 0.11 0.10 0.09 0.11 0.13 0.13 0.14 0.16 0.20 0.20 0.16 0.14 0.15 0.14 0.15 0.14 0.08 0.04 0.04 0.07 0.12 0.16 0.20 0.24 0.25 0.25 0.31 0.57 0.84 0.99 1.19
0.02 0.02 0.02 0.04 0.09 0.12 0.11 0.09 0.08 0.08 0.12 0.16 0.17 0.16 0.17 0.18 0.16 0.16 0.15 0.16 0.15 0.12 0.10 0.06 0.03 0.03 0.04 0.07 0.10 0.11 0.12 0.13 0.13 0.17 0.40 0.70 0.95 1.10